Location: Wells
(51.2093°N, 2.6446°W)
Time: 07:22:58
(UTC+01:00)

PCSat - Pass Details

Date: 18 March 2026
Orbit: 780 x 790 km, 67.1° (Epoch: 13 April)

Event Time Altitude Azimuth Distance (km) Brightness Sun altitude
Exits shadow 00:35:54 21° 356° (N) 1,720 11.8 -39.7°
Drops below altitude 10° 00:38:43 10° 25° (NNE) 2,365 12.6 -39.6°
Sets 00:41:38 0° 40° (NE) 3,297 13.4 -39.6°
